Weather Roundup
Issued by NWS

Home | Current Version | Previous Version | Graphics & Text | Print | Product List | Glossary Off
Versions: 1 2 3 4 5 6 7 8 9 10 11 12 13 14 15 16 17 18 19 20 21 22 23 24 25 26 27 28 29 30 31 32 33 34 35 36 37 38 39 40 41 42 43 44 45 46 47 48 49 50

656
NZUS93 KARX 081259
HRRWXR

CURRENT HOURLY OBSERVATIONS ACROSS
MUCH OF THE UPPER MISSISSIPPI VALLEY
NATIONAL WEATHER SERVICE LA CROSSE WI
700 AM CST MON FEB 08 2016


...SOUTHEAST MINNESOTA...


CITY           SKY/WX    TMP DP  RH WIND       PRES   REMARKS
ROCHESTER      LGT SNOW  12   8  84 NW24      29.77R FOG     WCI  -8
ROCHESTER/MAYO CLOUDY    14   9  79 NW16G28   29.78R WCI  -2
WINONA         CLOUDY    19  12  73 NW21G28   29.78R WCI   3
AUSTIN         LGT SNOW  10   9  92 NW18G26   29.80R WCI  -8
ALBERT LEA     LGT SNOW  10   7  85 NW16G23   29.83R WCI  -7
DODGE CENTER   LGT SNOW  10   9  92 NW18G24   29.79R WCI  -8
PRESTON        FLURRIES  13   8  80 N17G24    29.75R WCI  -4
OWATONNA       LGT SNOW  10   7  85 NW21G26   29.84R WCI  -9
FARIBAULT      CLOUDY    10   7  85 NW14G25   29.86R HAZE    WCI  -5
$$

...ELSEWHERE IN MINNESOTA...


CITY           SKY/WX    TMP DP  RH WIND       PRES   REMARKS
MINNEAPOLIS    FLURRIES  12   4  70 NW23G32   29.87R WCI  -7
INTNL FALLS    LGT SNOW   5   0  79 NW13G25   29.92R WCI -12
DULUTH         LGT SNOW   8   2  76 NW16G25   29.77R BLWGSNOWWCI -10
RED WING       FLURRIES  16   7  67 NW9G18    29.82R WCI   4
REDWOOD FALLS  LGT SNOW  13   8  81 NW22G31   29.98R WCI  -6
MANKATO        CLOUDY   N/A N/A N/A NW29G37   29.88F
WORTHINGTON    CLOUDY   N/A N/A N/A NW32G41   29.96R VSB 3/4
FAIRMONT       CLOUDY   N/A N/A N/A NW29G36   29.88S
$$

...SOUTHWEST WISCONSIN...


CITY           SKY/WX    TMP DP  RH WIND       PRES   REMARKS
LA CROSSE      CLOUDY    18  11  74 NW14      29.75R WCI   4
PRAIRIE DU CHI MIX PCPN  18  11  73 NW16      29.75R WCI   3
BOSCOBEL       FLURRIES  20  13  74 NW7G16    29.74R WCI  11
LONE ROCK      NOT AVBL
PLATTEVILLE    CLOUDY    19  16  86 NW15      29.68R WCI   5
FORT MC COY    FLURRIES  18  13  80 W10       29.73R WCI   7
VIROQUA        CLOUDY    16  13  89 NW13      29.68R WCI   2
WIS DELLS      LGT SNOW  20  16  83 NW8       29.65R WCI  11
$$

...ELSEWHERE IN WISCONSIN...


CITY           SKY/WX    TMP DP  RH WIND       PRES   REMARKS
MILWAUKEE      LGT SNOW  31  28  89 NW8       29.59R VSB 1   WCI  23
MADISON        FLURRIES  24  18  77 NW12G18   29.64R WCI  13
GREEN BAY      CLOUDY    31  26  82 W12       29.58R WCI  22
EAU CLAIRE     NOT AVBL
BLACK RVR FLS  LGT SNOW  18  12  76 NW8       29.71R WCI   8
MEDFORD        CLOUDY    19  16  88 NW14G20   29.61R WCI   5
WAUSAU         CLOUDY    24  18  77 W8        29.60R WCI  15
WIS RAPIDS     CLOUDY    20  12  71 NW14      29.66R WCI   7
MARSHFIELD     CLOUDY    18  12  77 NW15      29.63R WCI   4
RICE LAKE      LGT SNOW  13   8  79 NW8       29.78R WCI   2
$$

...NORTHEAST IOWA...


CITY           SKY/WX    TMP DP  RH WIND       PRES   REMARKS
WATERLOO       LGT SNOW  14   8  77 NW20G32   29.80S WCI  -3
DUBUQUE        LGT SNOW  17  12  80 NW17      29.70R WCI   1
DECORAH        FLURRIES  16  10  79 NW13G22   29.73R WCI   2
MASON CITY     LGT SNOW  11   8  88 NW29G36   29.84R VSB 3/4 WCI -11
CHARLES CITY   LGT SNOW  14  10  85 NW25G32   29.80R WCI  -5
OELWEIN        LGT SNOW  14  10  85 NW25G31   29.76S WCI  -5
$$

...ELSEWHERE IN IOWA...


CITY           SKY/WX    TMP DP  RH WIND       PRES   REMARKS
DES MOINES     LGT SNOW  18  11  74 NW22G29   29.91R BLWGSNOWWCI   1
IOWA CITY      FLURRIES  19  12  74 NW17G24   29.81R WCI   4
FORT DODGE     CLOUDY    14   7  73 NW17G25   29.91R WCI  -3
MARSHALLTOWN   CLOUDY    15   9  76 NW24G33   29.84R WCI  -4
CEDAR RAPIDS   FLURRIES  17  11  77 NW21G31   29.78R WCI   0
$$

...NORTHERN ILLINOIS...


CITY           SKY/WX    TMP DP  RH WIND       PRES   REMARKS
CHICAGO-OHARE  FLURRIES  30  26  85 W12       29.62R WCI  20
CHICAGO-MIDWAY FLURRIES  33  28  81 W8        29.63R WCI  26
MOLINE         CLOUDY    21  12  68 NW15G24   29.75R HAZE    WCI   8
ROCKFORD       CLOUDY    26  19  74 W14       29.67R WCI  14
PEORIA         LGT SNOW  24  16  71 W18G26    29.75R WCI  10
$$

NOTE: "FAIR" INDICATES FEW OR NO CLOUDS BELOW 12,000 FEET WITH NO
SIGNIFICANT WEATHER AND/OR OBSTRUCTIONS TO VISIBILITY. WIND
SPEEDS ARE IN MILES-PER-HOUR.




USA.gov is the U.S. government's official web portal to all federal, state and local government web resources and services.